NOAA 16 DEB, 41514

Orbit data source: Space-Track

NOAA 16 DEB, 41514 is space debris in SSO originally from a launch on Thu, 21 Sep 2000 UTC launched from the Air Force Western Test Range (AFWTR). Debris objects in space refer to the collection of defunct objects orbiting the Earth. Examples of debris include non-operational satellites, rocket bodies, and fragments generated from explosions, collisions, or faulty payload assembly.

Loading next visibility...
Identifier
41514, 2000-055MN
Orbit
SSO
Country
Flag of USUS
Related business
Manufacturer
Unknown
Mission
Spacecraft
Bus & Motor
Unknown
Mass
Unknown
Launch date (UTC)
2000-09-21 (25 years ago)
Launch vehicle
Unknown
Launch site
Air Force Western Test Range (AFWTR)
Object type
Payload
Rocket body
Debris
Shape & HBR
Unknown shape, 0.1 m
Radar Cross Section
Small (<0.1 m²)

Expand to show TLE details & history
Last TLE update: 14 hours ago

TLE from 14 hours ago
0 NOAA 16 DEB
1 41514U 00055MN  25293.29726213  .00035772  00000-0  65330-2 0  9991
2 41514  98.9119 112.0566 0023699  18.4639 341.7417 14.65626481495564
Epoch: 2025-10-20T07:08Z
TLE epoch observation values (Epoch: 2025-10-20T07:08:03.448Z)
Latitude
0.00003°
Longitude
-23.95937°
Altitude
662.161 km
Speed
7.535 km/s
True Right ascension
07h 28m 13s
True Declination
0° 00' 00"
Sunlit
Object was in daylight at epoch
Visualization orbit readout
Latitude
Unknown
Longitude
Unknown
Altitude
Unknown
Speed
Unknown
Apparent Right ascension
Unknown
Apparent Declination
Unknown
Sunlit
N/A
Visualization observer readout
Local Sidereal Time
16:12:10
Azimuth
Unknown
Elevation
Unknown
Doppler factor
Unknown
Orbital elements
Apogee altitude
688.881 km
Perigee altitude
655.464 km
Semi-major axis
7,050.31 km
Eccentricity
0.00237
Inclination
98.9119°
RAAN
112.0566°
Arg. of periapsis
18.4639°
True anomaly
341.65638°
Mean anomaly
341.7417°
Eccentric anomaly
341.69906°
Mean motion
3.66632 °/min
Orbital period
98.19 mins
BSTAR
0.006533
Loading maneuver chart data...
Computing Atmospheric mass density...

Documentation

Showing up to 5 results
|